Notices

Please take our survey and provide feedback: https://eccc.sondage-survey.ca/f/LanguageSelection.aspx?s=442ca660-fcf1-47c0-95a9-59707d6fd709

Please note that the IDF dataset is available through this link: Intensity-Duration-Frequency (IDF) Files .

Hourly Data Report for November 25, 2020

MUSKOKA
ONTARIO
Current Station Operator: NAVCAN

44°58'29.000" N
79°18'12.000" W
281.90 m
6115529
71532
YQA

Download Data

Hourly Data (November 2020)
Hourly Data Report for November 25, 2020
TIME
LST
Temp Definition
°C
Dew Point Definition
°C
Rel Hum Definition
%
Precip. Amount Definition
mm

Wind Dir Definition
10's deg

Wind Spd Definition
km/h
Visibility Definition
km
Stn Press Definition
kPa
Hmdx Definition


Wind Chill Definition


Weather Definition


00:00 -4.4 -5.7 91 LegendMM 12 11 2.0 98.79   -9 Snow
01:00 -4.3 -5.6 91 LegendMM 11 13 3.2 98.67   -9 Snow
02:00 -4.2 -5.3 92 LegendMM 12 15 0.8 98.60   -10 Moderate Snow
03:00 -4.3 -5.4 92 LegendMM 14 11 1.6 98.54   -9 Snow
04:00 -4.2 -5.3 92 LegendMM 13 13 2.8 98.42   -9 Snow
05:00 -3.8 -4.8 93 LegendMM 12 9 2.0 98.34   -8 Snow
06:00 -3.5 -4.5 93 LegendMM 12 11 4.0 98.29   -8 Snow
07:00 -3.2 -4.0 94 LegendMM 12 11 1.2 98.33   -7 Snow
08:00 -2.7 -3.5 94 LegendMM 12 8 3.2 98.33   -6 Snow
09:00 -2.0 -2.8 94 LegendMM 12 8 6.4 98.30   -5 Snow
10:00 -0.8 -1.7 94 LegendMM 13 9 16.1 98.28   -4 LegendNANA
11:00 0.2 -0.8 93 LegendMM 12 5 16.1 98.25     LegendNANA
12:00 1.2 -0.1 91 LegendMM 12 5 16.1 98.20     LegendNANA
13:00 1.3 0.1 92 LegendMM 12 5 16.1 98.17     LegendNANA
14:00 1.5 0.5 93 LegendMM 11 5 16.1 98.13     LegendNANA
15:00 1.5 0.6 94 LegendMM 12 5 16.1 98.08     LegendNANA
16:00 1.4 0.7 95 LegendMM LegendMM 4 16.1 98.13     LegendNANA
17:00 1.5 0.8 95 LegendMM 10 8 16.1 98.12     LegendNANA
18:00 1.5 0.9 96 LegendMM 11 8 4.8 98.09     Rain,Fog
19:00 1.6 1.3 98 LegendMM 9 8 3.2 98.06     Rain,Fog
20:00 2.0 1.7 98 LegendMM 11 9 4.8 98.07     Fog
21:00 2.2 1.9 98 LegendMM 10 8 2.4 98.03     Rain,Fog
22:00 2.6 2.3 98 LegendMM 11 11 9.7 97.94     Rain,Fog
23:00 3.0 2.7 98 LegendMM 12 11 14.5 97.83     Rain

Notes on Data Quality.

Legend

  • E = Estimated
  • M = Missing
  • NA = Not Available*
  • [empty] = Indicates an unobserved value
Date modified: